Location: Godzisko
(49.9648°N, 19.4576°E)
Time: 05:50:35
(UTC+00:00)

Cosmos 1656 Rocket - Pass Details

Date: 20 April 2021
Orbit: 795 x 846 km, 71.1° (Epoch: 05 May)

Event Time Altitude Azimuth Distance (km) Brightness Sun altitude
Rises 02:51:28 0° 194° (SSW) 3,285 6.4 -7.9°
Reaches altitude 10° 02:53:53 10° 191° (S) 2,361 5.7 -7.5°
Maximum altitude 02:59:10 59° 113° (ESE) 920 4.2 -6.8°
Drops below altitude 10° 03:04:32 10° 35° (NE) 2,397 7.2 -6.0°
Sets 03:07:00 0° 32° (NNE) 3,339 7.9 -5.6°
